• MPC Preparation (Info)

  • MPEC 2016-O100: 2014 WF509

    The following Minor Planet Electronic Circular may be linked-to from your own Web pages, but must not otherwise be redistributed electronically.

    A form allowing access to any MPEC is at the bottom of this page.


    Read MPEC 2016-O99 Read MPEC 2016-O101


    M.P.E.C. 2016-O100                               Issued 2016 July 17, 02:37 UT
    
         The Minor Planet Electronic Circulars contain information on unusual
             minor planets and routine data on comets.  They are published
        on behalf of Division F of the International Astronomical Union by the
              Minor Planet Center, Smithsonian Astrophysical Observatory,
                              Cambridge, MA 02138, U.S.A.
    
                 Prepared using the Tamkin Foundation Computer Network
    
                                  MPC@CFA.HARVARD.EDU
                URL https://www.minorplanetcenter.net/    ISSN 1523-6714
    
                                      2014 WF509
    
    Observations:
         K14Wo9F  C2010 10 09.43426 03 32 20.163+12 57 42.02         22.3 wLEO100F51
         K14Wo9F  C2010 10 09.45031 03 32 20.113+12 57 41.54         22.5 wLEO100F51
         K14Wo9F  C2010 10 09.46646 03 32 20.060+12 57 41.33         22.3 wLEO100F51
         K14Wo9F  C2010 10 09.48421 03 32 19.996+12 57 41.03         22.1 wLEO100F51
         K14Wo9F  C2010 11 08.48828 03 30 12.095+12 47 44.74         22.2 wLEO100F51
         K14Wo9F  C2010 11 08.50100 03 30 12.030+12 47 44.40         22.4 wLEO100F51
         K14Wo9F  C2010 11 08.51517 03 30 11.974+12 47 44.30         22.4 wLEO100F51
         K14Wo9F  C2010 11 08.52784 03 30 11.906+12 47 43.94         22.1 wLEO100F51
         K14Wo9F  C2012 10 21.55072 03 42 34.189+13 21 22.14         22.3 wLEO100F51
         K14Wo9F  C2012 10 21.56678 03 42 34.111+13 21 21.64         22.1 wLEO100F51
         K14Wo9F  C2012 10 21.58282 03 42 34.067+13 21 21.39         22.2 wLEO100F51
         K14Wo9F  C2012 10 21.59895 03 42 33.979+13 21 21.24         22.1 wLEO100F51
         K14Wo9F  C2012 11 07.37054 03 41 19.380+13 16 02.39         22.0 wLEO100F51
         K14Wo9F  C2012 11 07.38574 03 41 19.314+13 16 02.04         22.1 wLEO100F51
         K14Wo9F  C2012 11 07.41601 03 41 19.177+13 16 01.91         21.9 wLEO100F51
         K14Wo9F  C2013 03 05.23888 03 36 50.774+13 10 21.51         22.2 wLEO100F51
         K14Wo9F  C2013 03 05.24284 03 36 50.802+13 10 21.93         22.4 wLEO100F51
         K14Wo9F  C2013 03 05.24681 03 36 50.807+13 10 22.11         22.5 wLEO100F51
         K14Wo9F  C2013 03 05.25075 03 36 50.807+13 10 22.00         22.4 wLEO100F51
         K14Wo9F  C2013 11 09.51065 03 46 41.774+13 28 45.09         22.0 wLEO100F51
         K14Wo9F  C2013 11 09.52572 03 46 41.701+13 28 44.88         22.1 wLEO100F51
         K14Wo9F  C2013 11 09.54083 03 46 41.631+13 28 44.69         22.0 wLEO100F51
         K14Wo9F  C2013 11 09.55598 03 46 41.546+13 28 44.30         22.3 wLEO100F51
         K14Wo9F  C2013 11 26.33899 03 45 20.595+13 23 59.67         22.0 wLEO100F51
         K14Wo9F  C2013 11 26.35432 03 45 20.516+13 23 59.46         22.2 wLEO100F51
         K14Wo9F  C2013 11 26.36970 03 45 20.440+13 23 59.17         22.1 wLEO100F51
         K14Wo9F* C2014 11 20.47905 03 51 20.761+13 38 29.85         22.2 wLEO100F51
         K14Wo9F  C2014 11 20.49030 03 51 20.689+13 38 29.55         22.2 wLEO100F51
         K14Wo9F  C2014 11 20.50152 03 51 20.622+13 38 29.41         22.2 wLEO100F51
         K14Wo9F  C2014 11 20.51272 03 51 20.599+13 38 29.18         21.9 wLEO100F51
         K14Wo9F  C2014 11 26.30469 03 50 52.444+13 36 57.58         21.9 wLEO100F51
         K14Wo9F  C2014 11 26.31592 03 50 52.386+13 36 57.43         22.4 wLEO100F51
         K14Wo9F  C2014 11 26.32711 03 50 52.333+13 36 57.30         21.9 wLEO100F51
         K14Wo9F  C2014 11 26.33831 03 50 52.287+13 36 56.97         22.1 wLEO100F51
         K14Wo9F  C2015 01 17.30380 03 47 31.277+13 29 45.69         22.3 wLEO100F51
         K14Wo9F  C2015 01 17.31760 03 47 31.246+13 29 45.78         22.4 wLEO100F51
         K14Wo9F  C2015 01 17.33145 03 47 31.214+13 29 45.84         22.3 wLEO100F51
         K14Wo9F  C2015 01 17.34529 03 47 31.163+13 29 46.00         22.3 wLEO100F51
         K14Wo9F  C2015 07 26.58564 03 59 36.191+14 13 48.37         22.0 wLEO100F51
         K14Wo9F  C2015 07 26.59616 03 59 36.248+14 13 48.33         22.1 wLEO100F51
         K14Wo9F  C2015 07 26.60137 03 59 36.240+14 13 48.34         22.2 wLEO100F51
    
    Observer details:
    F51 Pan-STARRS 1, Haleakala.  Observers B. Gibson, T. Goggia, N. Primak,
        A. Schultz, M. Willman.  Measurers K. Chambers, S. Chastel, Y.-T. Chen,
        L. Denneau, H. Flewelling, M. Holman, M. Huber, R. Jedicke, M. Lackner,
        E. Lilly, H.-W. Lin, E. Magnier, M. Micheli, M. Payne, P. Veres,
        R. Wainscoat, C. Waters, R. Weryk.  1.8-m Ritchey-Chretien + CCD.
    
    Orbital elements:
    2014 WF509
    Epoch 2016 July 31.0 TT = JDT 2457600.5                 MPC
    M  51.93350              (2000.0)            P               Q
    n   0.00325503     Peri.  183.08559     +0.99994868     -0.00841284
    a  45.0919654      Node   177.37644     +0.00966243     +0.95944967
    e   0.0894640      Incl.    7.08382     -0.00304595     +0.28175441
    P 303              H    5.7           G   0.15           U   2
    Residuals in seconds of arc
    101009 F51  0.1-  0.0     121107 F51  0.1+  0.4+    141120 F51  0.3-  0.1+
    101009 F51  0.0   0.1-    130305 F51  0.2-  0.3-    141120 F51  0.1+  0.1+
    101009 F51  0.1+  0.0     130305 F51  0.1+  0.0     141126 F51  0.1+  0.0
    101009 F51  0.1+  0.0     130305 F51  0.0   0.1+    141126 F51  0.1+  0.0
    101108 F51  0.1-  0.1+    130305 F51  0.1-  0.0     141126 F51  0.1+  0.1+
    101108 F51  0.1-  0.0     131109 F51  0.1+  0.1-    141126 F51  0.2+  0.1-
    101108 F51  0.1+  0.2+    131109 F51  0.1+  0.0     150117 F51  0.0   0.1-
    101108 F51  0.0   0.1+    131109 F51  0.1+  0.0     150117 F51  0.0   0.0
    121021 F51  0.0   0.0     131109 F51  0.1-  0.1-    150117 F51  0.0   0.0
    121021 F51  0.2-  0.2-    131126 F51  0.1+  0.1-    150117 F51  0.3-  0.2+
    121021 F51  0.1+  0.1-    131126 F51  0.0   0.1-    150726 F51  0.1-  0.0
    121021 F51  0.2-  0.1+    131126 F51  0.0   0.1-    150726 F51  0.2+  0.0
    121107 F51  0.1-  0.0     141120 F51  0.1+  0.2+    150726 F51  0.2-  0.0
    121107 F51  0.0   0.1-    141120 F51  0.2-  0.1+
    
    Ephemeris:
    2014 WF509               a,e,i = 45.09, 0.09, 7                  q = 41.058
    Date    TT    R. A. (2000) Decl.     Delta      r     Elong.  Phase     V
    2016 06 17    04 01 46.6 +14 20 13  43.7535 42.8385    25.5     0.6    22.2
    ...
    2016 07 02    04 03 09.1 +14 22 53  43.6253 42.8415    39.1     0.9    22.2
    ...
    2016 07 10    04 03 48.6 +14 23 54  43.5365 42.8431    46.5     1.0    22.2
    ...
    2016 07 16    04 04 15.5 +14 24 27  43.4617 42.8443    52.1     1.1    22.2
    2016 07 17    04 04 19.8 +14 24 31  43.4486 42.8445    53.0     1.1    22.2
    2016 07 18    04 04 24.0 +14 24 35  43.4353 42.8447    53.9     1.1    22.2
    ...
    2016 07 24    04 04 47.7 +14 24 54  43.3525 42.8459    59.5     1.2    22.2
    ...
    2016 08 01    04 05 15.0 +14 25 02  43.2342 42.8475    67.0     1.2    22.2
    ...
    2016 08 16    04 05 51.7 +14 24 25  42.9950 42.8505    81.1     1.3    22.2
    
    A. U. Tomatic                (C) Copyright 2016 MPC           M.P.E.C. 2016-O100
    

    Read MPEC 2016-O99 Read MPEC 2016-O101


    MPEC number:

    Enter an MPEC number in one of the following forms:

    • 1997-B01 (the full form)
    • J97B01 (the packed version of the full form)
    • B01 (the abbreviated form)